Memphis, TN

7:24 PM CDT on August 23, 2017 (GMT -0500)
Memphis International

Weather History for KMEM - July, 2013

Change the Weather History Date:

Friday, July 26, 2013

  Actual Average Record
Temperature  
Mean Temperature 75 °F 83 °F  
Max Temperature 83 °F 92 °F 102 °F (1952)
Min Temperature 67 °F 74 °F 66 °F (1962)
Degree Days  
Heating Degree Days 0 0  
Month to date heating degree days 0 0  
Since 1 June heating degree days 0 0  
Since 1 July heating degree days 0 0  
Cooling Degree Days 10 18  
Month to date cooling degree days 411 464  
Year to date cooling degree days 1146 1223  
Since 1 June cooling degree days 861 902  
Growing Degree Days 24 (Base 50)    
Moisture  
Dew Point 62 °F    
Average Humidity 62    
Maximum Humidity 78    
Minimum Humidity 46    
Precipitation  
Precipitation 0.00 in 0.16 in 3.67 in (1886)
Month to date precipitation 3.39 3.89  
Year to date precipitation 43.44 31.80  
Snow  
Snow 0.00 in 0.00 in - ()
Month to date snowfall 0.0 0.0  
Since 1 June snowfall 0.0 0.0  
Since 1 July snowfall 0.0 0.0  
Snow Depth 0.00 in    
Sea Level Pressure  
Sea Level Pressure 30.03 in    
Wind  
Wind Speed 4 mph (West)    
Max Wind Speed 16 mph    
Max Gust Speed 18 mph    
Visibility 10 miles    
Events      
T = Trace of Precipitation, MM = Missing Value Source: NWS Daily Summary

Daily Weather History Graph

Daily Weather History Graph

Search for Another Location

Airport or City:

Trip Planner

Search our weather history database for the weather conditions in past years. The results will help you decide how hot, cold, wet, or windy it might be!

Date:

Astronomy

Jul. 26, 2013 Rise Set
Actual Time 6:05 AM CDT 8:07 PM CDT
Civil Twilight 5:36 AM CDT 8:35 PM CDT
Nautical Twilight 5:02 AM CDT 9:09 PM CDT
Astronomical Twilight 4:25 AM CDT 9:46 PM CDT
Moon 10:35 PM CDT (7/26) 10:28 AM CDT (7/26)
Length of Visible Light 14h 58m
Length of Day
14h 02m
Waning Gibbous, 80% of the Moon is Illuminated
Jul 26
Waning Gibbous
Jul 29
Last Quarter
Aug 6
New
Aug 14
First Quarter
Aug 20
Full

Hourly Weather History & Observations

Time (CDT) Temp. Heat Index Dew Point Humidity Pressure Visibility Wind Dir Wind Speed Gust Speed Precip Events Conditions
12:54 AM 72.0 °F - 59.0 °F 64% 30.05 in 10.0 mi Calm Calm - N/A   Scattered Clouds
1:54 AM 71.1 °F - 60.1 °F 68% 30.06 in 10.0 mi Calm Calm - N/A   Scattered Clouds
2:54 AM 70.0 °F - 60.1 °F 71% 30.04 in 10.0 mi Calm Calm - N/A   Scattered Clouds
3:54 AM 68.0 °F - 60.1 °F 76% 30.04 in 10.0 mi Calm Calm - N/A   Partly Cloudy
4:54 AM 68.0 °F - 61.0 °F 78% 30.05 in 10.0 mi Variable 4.6 mph - N/A   Partly Cloudy
5:54 AM 68.0 °F - 61.0 °F 78% 30.05 in 9.0 mi ENE 3.5 mph - N/A   Scattered Clouds
6:54 AM 69.1 °F - 62.1 °F 78% 30.05 in 10.0 mi East 3.5 mph - N/A   Mostly Cloudy
7:54 AM 72.0 °F - 63.0 °F 73% 30.06 in 10.0 mi Calm Calm - N/A   Overcast
8:54 AM 75.9 °F - 62.1 °F 62% 30.06 in 10.0 mi ESE 3.5 mph - N/A   Mostly Cloudy
9:54 AM 78.1 °F - 62.1 °F 58% 30.06 in 10.0 mi SSW 4.6 mph - N/A   Overcast
10:54 AM 79.0 °F - 62.1 °F 56% 30.06 in 10.0 mi SSE 4.6 mph - N/A   Mostly Cloudy
11:54 AM 82.0 °F 83.1 °F 63.0 °F 52% 30.07 in 10.0 mi WSW 6.9 mph - N/A   Mostly Cloudy
12:54 PM 81.0 °F 81.9 °F 62.1 °F 52% 30.05 in 10.0 mi SSW 6.9 mph - N/A   Overcast
1:54 PM 82.0 °F 82.1 °F 59.0 °F 45% 30.04 in 10.0 mi Calm Calm - N/A   Overcast
2:54 PM 81.0 °F 81.6 °F 60.1 °F 49% 30.04 in 10.0 mi West 4.6 mph - N/A   Overcast
3:54 PM 79.0 °F - 63.0 °F 58% 30.04 in 10.0 mi WNW 8.1 mph - N/A   Overcast
4:54 PM 78.1 °F - 64.0 °F 62% 30.03 in 10.0 mi NW 6.9 mph - N/A   Overcast
5:54 PM 78.1 °F - 63.0 °F 60% 30.02 in 10.0 mi NNE 5.8 mph - N/A   Overcast
6:54 PM 78.1 °F - 63.0 °F 60% 30.01 in 10.0 mi NNE 8.1 mph - N/A   Overcast
7:54 PM 77.0 °F - 64.0 °F 64% 29.97 in 10.0 mi ENE 8.1 mph - N/A   Overcast
8:54 PM 77.0 °F - 64.0 °F 64% 29.98 in 10.0 mi Calm Calm - N/A   Overcast
9:54 PM 77.0 °F - 63.0 °F 62% 29.98 in 10.0 mi ESE 4.6 mph - N/A   Overcast
10:54 PM 73.9 °F - 64.9 °F 73% 29.99 in 10.0 mi WSW 3.5 mph - N/A   Overcast
11:54 PM 73.9 °F - 64.9 °F 73% 30.00 in 10.0 mi West 3.5 mph - N/A   Overcast